When you browse on this site, cookies collect data to enhance your experience and personalize the content and advertising you see.
Visit our Privacy Policy to learn more. By continuing to use the site, you agree to this use of cookies and data.
  • In Austria
  • List of Countries
  • For 7 days
  • Water Temperature
  • Weather Map
  • News
  • Weather Widgets
  • user-avatar
    Login

    Hourly Weather Nuernberg

    Today, 31 May, Sunday

    Time Temperature Precipitation Wind Pressure Humidity
    00:00 +8°C° 0 mm 1 mps 738 mmHg 88%
    01:00 +8°C° 0 mm 1 mps 737 mmHg 90%
    02:00 +8°C° 0 mm 1 mps 737 mmHg 90%
    03:00 +7°C° 0 mm 1 mps 737 mmHg 91%
    04:00 +7°C° 0 mm 1 mps 737 mmHg 91%
    05:00 +8°C° 0 mm 1 mps 737 mmHg 85%
    06:00 +10°C° 0 mm 1 mps 737 mmHg 79%
    07:00 +12°C° 0 mm 1 mps 737 mmHg 73%
    08:00 +13°C° 0 mm 2 mps 737 mmHg 66%
    09:00 +15°C° 0 mm 2 mps 737 mmHg 59%
    10:00 +16°C° 0 mm 3 mps 737 mmHg 53%
    11:00 +17°C° 0 mm 3 mps 738 mmHg 51%
    12:00 +18°C° 0 mm 3 mps 738 mmHg 49%
    13:00 +19°C° 0 mm 3 mps 738 mmHg 47%
    14:00 +19°C° 0 mm 3 mps 738 mmHg 47%
    15:00 +19°C° 0 mm 3 mps 738 mmHg 47%
    16:00 +19°C° 0 mm 3 mps 738 mmHg 47%
    17:00 +17°C° 0 mm 3 mps 738 mmHg 56%
    18:00 +14°C° 0 mm 3 mps 738 mmHg 65%
    19:00 +12°C° 0 mm 3 mps 738 mmHg 73%
    20:00 +12°C° 0 mm 2 mps 738 mmHg 80%
    21:00 +10°C° 0 mm 2 mps 738 mmHg 86%
    22:00 +10°C° 0 mm 1 mps 738 mmHg 92%
    23:00 +9°C° 0 mm 1 mps 738 mmHg 92%

    Tomorrow, 1 June, Monday

    Time Temperature Precipitation Wind Pressure Humidity
    00:00 +9°C° 0 mm 1 mps 738 mmHg 93%
    01:00 +8°C° 0 mm 0 mps 738 mmHg 93%
    02:00 +9°C° 0 mm 1 mps 738 mmHg 94%
    03:00 +9°C° 0 mm 1 mps 738 mmHg 94%
    04:00 +9°C° 0 mm 1 mps 738 mmHg 95%
    05:00 +10°C° 0 mm 1 mps 738 mmHg 90%
    06:00 +12°C° 0 mm 1 mps 738 mmHg 86%
    07:00 +14°C° 0 mm 1 mps 738 mmHg 81%
    08:00 +16°C° 0 mm 2 mps 738 mmHg 72%
    09:00 +18°C° 0 mm 2 mps 738 mmHg 62%
    10:00 +20°C° 0 mm 3 mps 738 mmHg 53%
    11:00 +21°C° 0 mm 3 mps 738 mmHg 49%
    12:00 +22°C° 0 mm 3 mps 738 mmHg 45%
    13:00 +24°C° 0 mm 3 mps 738 mmHg 42%
    14:00 +24°C° 0 mm 3 mps 738 mmHg 43%
    15:00 +25°C° 0 mm 3 mps 737 mmHg 44%
    16:00 +25°C° 0 mm 3 mps 737 mmHg 45%
    17:00 +22°C° 0 mm 3 mps 737 mmHg 52%
    18:00 +21°C° 0 mm 3 mps 737 mmHg 60%
    19:00 +19°C° 0 mm 3 mps 737 mmHg 67%
    20:00 +18°C° 0 mm 3 mps 737 mmHg 73%
    21:00 +16°C° 0 mm 2 mps 737 mmHg 79%
    22:00 +14°C° 0 mm 2 mps 737 mmHg 85%
    23:00 +13°C° 0 mm 2 mps 737 mmHg 87%

    Day after tomorrow, 2 June, Tuesday

    Time Temperature Precipitation Wind Pressure Humidity
    00:00 +12°C° 0 mm 2 mps 737 mmHg 89%
    01:00 +12°C° 0 mm 2 mps 737 mmHg 91%
    02:00 +10°C° 0 mm 2 mps 737 mmHg 91%
    03:00 +10°C° 0 mm 2 mps 737 mmHg 91%
    04:00 +9°C° 0 mm 2 mps 737 mmHg 90%
    05:00 +12°C° 0 mm 2 mps 737 mmHg 83%
    06:00 +13°C° 0 mm 2 mps 737 mmHg 76%
    07:00 +15°C° 0 mm 2 mps 737 mmHg 68%
    08:00 +17°C° 0 mm 2 mps 737 mmHg 61%
    09:00 +19°C° 0 mm 2 mps 737 mmHg 53%
    10:00 +21°C° 0 mm 3 mps 737 mmHg 46%
    11:00 +23°C° 0 mm 2 mps 736 mmHg 43%
    12:00 +24°C° 0 mm 2 mps 736 mmHg 41%
    13:00 +25°C° 0 mm 2 mps 736 mmHg 38%
    14:00 +25°C° 0 mm 2 mps 735 mmHg 39%
    15:00 +25°C° 0 mm 3 mps 735 mmHg 40%
    16:00 +25°C° 0 mm 3 mps 734 mmHg 40%
    17:00 +22°C° 0 mm 3 mps 734 mmHg 47%
    18:00 +21°C° 0 mm 3 mps 733 mmHg 54%
    19:00 +19°C° 0 mm 3 mps 733 mmHg 61%
    20:00 +18°C° 0 mm 3 mps 733 mmHg 67%
    21:00 +16°C° 0 mm 2 mps 733 mmHg 73%
    22:00 +14°C° 0 mm 2 mps 733 mmHg 79%
    23:00 +14°C° 0 mm 2 mps 733 mmHg 81%

    3 June, Wednesday

    Time Temperature Precipitation Wind Pressure Humidity
    00:00 +13°C° 0 mm 2 mps 732 mmHg 83%
    01:00 +13°C° 0 mm 1 mps 732 mmHg 85%
    02:00 +12°C° 0 mm 1 mps 732 mmHg 86%
    03:00 +12°C° 0 mm 1 mps 731 mmHg 86%
    04:00 +12°C° 0 mm 1 mps 731 mmHg 87%
    05:00 +13°C° 0 mm 1 mps 731 mmHg 81%
    06:00 +15°C° 0 mm 1 mps 730 mmHg 76%
    07:00 +16°C° 0 mm 2 mps 730 mmHg 70%
    08:00 +18°C° 0 mm 2 mps 730 mmHg 63%
    09:00 +19°C° 0 mm 2 mps 730 mmHg 55%
    10:00 +21°C° 0 mm 2 mps 729 mmHg 48%
    11:00 +23°C° 0 mm 2 mps 729 mmHg 45%
    12:00 +24°C° 0 mm 2 mps 728 mmHg 41%
    13:00 +25°C° 0 mm 2 mps 728 mmHg 38%
    14:00 +25°C° 0 mm 2 mps 727 mmHg 38%
    15:00 +25°C° 0 mm 2 mps 727 mmHg 38%
    16:00 +25°C° 0 mm 2 mps 726 mmHg 38%
    17:00 +24°C° 0 mm 2 mps 726 mmHg 46%
    18:00 +23°C° 0 mm 2 mps 725 mmHg 54%
    19:00 +21°C° 0 mm 1 mps 725 mmHg 62%
    20:00 +20°C° 0 mm 1 mps 725 mmHg 66%
    21:00 +18°C° 0 mm 1 mps 725 mmHg 69%
    22:00 +15°C° 0 mm 1 mps 725 mmHg 73%
    23:00 +15°C° 0 mm 2 mps 725 mmHg 73%

    4 June, Thursday

    Time Temperature Precipitation Wind Pressure Humidity
    00:00 +15°C° 0 mm 2 mps 724 mmHg 73%
    01:00 +14°C° 0 mm 2 mps 724 mmHg 73%
    02:00 +14°C° 0 mm 2 mps 724 mmHg 75%
    03:00 +14°C° 0 mm 2 mps 724 mmHg 76%
    04:00 +14°C° 0 mm 2 mps 724 mmHg 77%
    05:00 +14°C° 0.9 mm 2 mps 723 mmHg 83%
    06:00 +15°C° 0.9 mm 2 mps 723 mmHg 89%
    07:00 +15°C° 0.9 mm 2 mps 723 mmHg 95%
    08:00 +14°C° 0.8 mm 3 mps 723 mmHg 95%
    09:00 +16°C° 0.8 mm 3 mps 723 mmHg 94%
    10:00 +16°C° 0.8 mm 3 mps 723 mmHg 93%
    11:00 +17°C° 0.5 mm 3 mps 723 mmHg 90%
    12:00 +18°C° 0.5 mm 3 mps 722 mmHg 86%
    13:00 +19°C° 0.5 mm 3 mps 722 mmHg 82%
    14:00 +19°C° 1 mm 3 mps 722 mmHg 83%
    15:00 +18°C° 1 mm 3 mps 722 mmHg 83%
    16:00 +18°C° 1 mm 3 mps 722 mmHg 84%
    17:00 +18°C° 0.4 mm 4 mps 723 mmHg 86%
    18:00 +17°C° 0.4 mm 4 mps 723 mmHg 88%
    19:00 +15°C° 0.4 mm 4 mps 723 mmHg 90%
    20:00 +14°C° 0.3 mm 3 mps 724 mmHg 91%
    21:00 +13°C° 0.3 mm 3 mps 724 mmHg 93%
    22:00 +13°C° 0.3 mm 3 mps 725 mmHg 95%
    23:00 +13°C° 0 mm 2 mps 725 mmHg 95%

    5 June, Friday

    Time Temperature Precipitation Wind Pressure Humidity
    00:00 +13°C° 0 mm 2 mps 725 mmHg 95%
    01:00 +13°C° 0 mm 2 mps 725 mmHg 96%
    02:00 +12°C° 0 mm 2 mps 725 mmHg 96%
    03:00 +12°C° 0 mm 1 mps 725 mmHg 96%
    04:00 +11°C° 0 mm 1 mps 725 mmHg 96%
    05:00 +12°C° 0 mm 1 mps 725 mmHg 93%
    06:00 +13°C° 0 mm 1 mps 725 mmHg 91%
    07:00 +14°C° 0 mm 2 mps 726 mmHg 89%
    08:00 +15°C° 0.1 mm 2 mps 725 mmHg 80%
    09:00 +17°C° 0.1 mm 3 mps 725 mmHg 72%
    10:00 +18°C° 0.1 mm 4 mps 725 mmHg 63%
    11:00 +20°C° 0 mm 4 mps 725 mmHg 59%
    12:00 +21°C° 0 mm 4 mps 724 mmHg 56%
    13:00 +22°C° 0 mm 4 mps 724 mmHg 52%
    14:00 +22°C° 0 mm 4 mps 724 mmHg 53%
    15:00 +22°C° 0 mm 4 mps 723 mmHg 54%
    16:00 +22°C° 0 mm 4 mps 723 mmHg 56%
    17:00 +21°C° 0.2 mm 3 mps 723 mmHg 64%
    18:00 +20°C° 0.2 mm 3 mps 722 mmHg 73%
    19:00 +19°C° 0.2 mm 2 mps 722 mmHg 81%
    20:00 +18°C° 0.3 mm 2 mps 723 mmHg 84%
    21:00 +17°C° 0.3 mm 2 mps 723 mmHg 88%
    22:00 +16°C° 0.3 mm 2 mps 723 mmHg 91%
    23:00 +15°C° 0 mm 2 mps 723 mmHg 92%
    Show more